Tenerife, Spain

7:48 PM WEST on October 23, 2017 (GMT +0100)
Tenerife

Weather History for GCXO - October, 2017

Change the Weather History Date:

Friday, October 13, 2017

  Actual Average Record
Temperature  
Mean Temperature 84 °F -  
Max Temperature 94 °F 67 °F 94 °F (2017)
Min Temperature 73 °F 57 °F 55 °F (1996)
Cooling Degree Days 18    
Growing Degree Days 34 (Base 50)    
Moisture  
Dew Point 39 °F    
Average Humidity 20    
Maximum Humidity 27    
Minimum Humidity 10    
Precipitation  
Precipitation 0.00 in - - ()
Sea Level Pressure  
Sea Level Pressure 30.15 in    
Wind  
Wind Speed 4 mph ()    
Max Wind Speed 15 mph    
Max Gust Speed -    
Visibility 7.5 miles    
Events      
Averages and records for this station are not official NWS values.
T = Trace of Precipitation, MM = Missing Value Source: Averaged Metar Reports

Daily Weather History Graph

Daily Weather History Graph

Search for Another Location

Airport or City:

Trip Planner

Search our weather history database for the weather conditions in past years. The results will help you decide how hot, cold, wet, or windy it might be!

Date:

Astronomy

Oct. 13, 2017 Rise Set
Actual Time 8:04 AM WEST 7:37 PM WEST
Civil Twilight 7:41 AM WEST 8:01 PM WEST
Nautical Twilight 7:13 AM WEST 8:28 PM WEST
Astronomical Twilight 6:46 AM WEST 8:56 PM WEST
Moon 1:48 AM WEST (10/13) 3:40 PM WEST (10/13)
Length of Visible Light 12h 20m
Length of Day
11h 32m
Last Quarter, 40% of the Moon is Illuminated
Oct 13
Last Quarter
Oct 19
New
Oct 27
First Quarter
Nov 4
Full
Nov 10
Last Quarter

Hourly Weather History & Observations

Time (WEST) Temp. Dew Point Humidity Pressure Visibility Wind Dir Wind Speed Gust Speed Precip Events Conditions
12:00 AM 78.8 °F 35.6 °F 21% 30.18 in 6.2 mi South 3.5 mph - N/A   Unknown
12:30 AM 75.2 °F 35.6 °F 24% 30.18 in 6.2 mi Calm Calm - N/A   Unknown
1:00 AM 78 °F 36 °F 13% 30.07 in 18 mi Calm Calm - -  
1:00 AM 78.8 °F 35.6 °F 21% 30.18 in 6.2 mi Calm Calm - N/A   Unknown
1:30 AM 77.0 °F 37.4 °F 24% 30.18 in 6.2 mi Calm Calm - N/A   Unknown
2:00 AM 77.0 °F 37.4 °F 24% 30.15 in 6.2 mi Calm Calm - N/A   Unknown
2:30 AM 77.0 °F 35.6 °F 22% 30.15 in - Calm Calm - N/A   Clear
3:00 AM 77.0 °F 37.4 °F 24% 30.15 in - SSE 3.5 mph - N/A   Clear
3:30 AM 77.0 °F 37.4 °F 24% 30.15 in - SSE 4.6 mph - N/A   Clear
4:00 AM 76 °F 39 °F 16% 30.06 in 12 mi South 3.5 mph - -  
4:00 AM 73.4 °F 37.4 °F 27% 30.15 in - Variable 3.5 mph - N/A   Clear
4:30 AM 75.2 °F 39.2 °F 27% 30.15 in - Calm Calm - N/A   Clear
5:00 AM 77.0 °F 37.4 °F 24% 30.15 in - SSE 3.5 mph - N/A   Clear
5:30 AM 78.8 °F 39.2 °F 24% 30.15 in - SSE 8.1 mph - N/A   Clear
6:00 AM 80.6 °F 37.4 °F 21% 30.15 in - SSE 8.1 mph - N/A   Clear
6:30 AM 78.8 °F 35.6 °F 21% 30.15 in 6.2 mi SSE 4.6 mph - N/A   Partly Cloudy
7:00 AM 79 °F 36 °F 12% 30.05 in 16 mi SSE 8.1 mph - -   Partly Cloudy
7:00 AM 78.8 °F 35.6 °F 21% 30.15 in 6.2 mi SSE 6.9 mph - N/A   Partly Cloudy
7:30 AM 78.8 °F 35.6 °F 21% 30.15 in - SSE 6.9 mph - N/A   Clear
8:00 AM 80.6 °F 35.6 °F 20% 30.15 in - SSE 4.6 mph - N/A   Clear
8:30 AM 80.6 °F 35.6 °F 20% 30.15 in - SSE 5.8 mph - N/A   Clear
9:00 AM 80.6 °F 37.4 °F 21% 30.18 in 5.6 mi SSE 4.6 mph - N/A   Unknown
9:30 AM 82.4 °F 39.2 °F 21% 30.18 in 5.6 mi SE 3.5 mph - N/A   Unknown
10:00 AM 86 °F 40 °F 11% 30.05 in 6 mi East 4.6 mph - -   Partly Cloudy
10:00 AM 86.0 °F 41.0 °F 20% 30.18 in 5.6 mi Variable 2.3 mph - N/A   Unknown
10:30 AM 86.0 °F 37.4 °F 18% 30.18 in 5.6 mi ESE 4.6 mph - N/A   Unknown
11:00 AM 89.6 °F 41.0 °F 18% 30.18 in 5.6 mi SE 6.9 mph - N/A   Unknown
12:00 PM 91.4 °F 35.6 °F 14% 30.18 in 5.6 mi SSE 10.4 mph - N/A   Unknown
12:30 PM 93.2 °F 44.6 °F 19% 30.18 in 5.6 mi SSE 10.4 mph - N/A   Unknown
1:00 PM 90 °F 47 °F 14% 30.04 in 6 mi SE 12.7 mph - -   Scattered Clouds
1:00 PM 89.6 °F 46.4 °F 22% 30.18 in 5.6 mi SE 11.5 mph - N/A   Unknown
1:30 PM 91.4 °F 42.8 °F 18% 30.18 in - SSE 11.5 mph - N/A   Clear
2:00 PM 91.4 °F 39.2 °F 16% 30.18 in - SSE 13.8 mph - N/A   Clear
2:30 PM 91.4 °F 39.2 °F 16% 30.15 in - SSE 12.7 mph - N/A   Clear
3:00 PM 89.6 °F 37.4 °F 16% 30.15 in - SSE 10.4 mph - N/A   Clear
3:30 PM 87.8 °F 37.4 °F 17% 30.15 in - SSE 12.7 mph - N/A   Clear
4:00 PM 86 °F 37 °F 10% 30.02 in 9 mi SSE 15.0 mph - -   Partly Cloudy
4:30 PM 86.0 °F 37.4 °F 18% 30.15 in - SSE 11.5 mph - N/A   Clear
5:00 PM 86.0 °F 39.2 °F 19% 30.15 in - SSE 9.2 mph - N/A   Clear
5:30 PM 86.0 °F 39.2 °F 19% 30.15 in - SE 8.1 mph - N/A   Clear
6:00 PM 84.2 °F 39.2 °F 20% 30.15 in - ESE 9.2 mph - N/A   Clear
6:30 PM 82.4 °F 42.8 °F 25% 30.15 in - ESE 6.9 mph - N/A   Clear
7:00 PM 82 °F 42 °F 15% 30.04 in 9 mi ESE 4.6 mph - -   Scattered Clouds
7:30 PM 80.6 °F 42.8 °F 26% 30.15 in - SE 3.5 mph - N/A   Clear
8:00 PM 78.8 °F 41.0 °F 26% 30.18 in - Variable 2.3 mph - N/A   Clear
8:30 PM 78.8 °F 41.0 °F 26% 30.18 in - Calm Calm - N/A   Clear
9:00 PM 78.8 °F 41.0 °F 26% 30.18 in - Calm Calm - N/A   Clear
9:30 PM 80.6 °F 41.0 °F 24% 30.18 in - Calm Calm - N/A   Clear
10:00 PM 80 °F 41 °F 15% 30.09 in 8 mi Calm Calm - -  
10:30 PM 78.8 °F 41.0 °F 26% 30.18 in - Variable 2.3 mph - N/A   Clear
11:00 PM 78.8 °F 39.2 °F 24% 30.21 in - West 3.5 mph - N/A   Clear
11:30 PM 80.6 °F 41.0 °F 24% 30.21 in - West 6.9 mph - N/A   Clear